CW9197 Juva FI current weather conditions

sailwx.info

Wind from 223 at 2 knots gusting 5

Air temperature 5.6° C
Dewpoint 5.6° C

Last reported at 2019-Nov-18 00:05 UTC.
Time now 2019-Nov-18 01:17 UTC

Location: N 61°53' E 027°53'.
View on Google Maps.

See reports from other nearby stations

  
Tides and Currents Weather Stations Pressure Air Temp Water Temp Dewpoint Dewpoint Depression Visibility Wind Speed Wind Dir Waves Ship Positions
date/time (UTC)wind fromknots sea level pressurealtimeterstation pressurevisibilityair tempwater tempwave heightnotes
2019-Nov-18 00:55 218 2 gusting 3 5.0
2019-Nov-18 00:45 221 2 gusting 4 5.6
2019-Nov-18 00:35 221 2 gusting 4 5.6
2019-Nov-18 00:25 225 2 gusting 4 5.6
2019-Nov-18 00:15 218 2 gusting 4 5.6
2019-Nov-18 00:05 223 2 gusting 5 5.6
2019-Nov-17 23:55 221 3 gusting 5 5.0
2019-Nov-17 23:45 222 3 gusting 6 5.0
2019-Nov-17 23:35 221 3 gusting 5 5.0
2019-Nov-17 23:25 220 3 gusting 6 5.0
2019-Nov-17 23:15 220 4 gusting 6 5.0
2019-Nov-17 23:05 222 3 gusting 6 5.0
2019-Nov-17 22:55 222 2 gusting 4 5.0
2019-Nov-17 22:45 224 3 gusting 5 5.0
2019-Nov-17 22:35 220 3 gusting 6 5.0
2019-Nov-17 22:25 223 2 gusting 5 5.0
2019-Nov-17 22:15 221 3 gusting 5 5.0
2019-Nov-17 22:05 221 2 gusting 6 5.0
2019-Nov-17 21:55 218 4 gusting 6 5.0
2019-Nov-17 21:45 217 3 gusting 5 5.0
2019-Nov-17 21:35 219 3 gusting 6 5.0
2019-Nov-17 21:25 217 3 gusting 6 5.0
2019-Nov-17 21:15 218 4 gusting 6 5.0
2019-Nov-17 21:05 217 3 gusting 6 5.0
2019-Nov-17 20:55 219 4 gusting 6 4.4
2019-Nov-17 20:45 218 3 gusting 5 4.4
2019-Nov-17 20:35 219 3 gusting 5 4.4
2019-Nov-17 20:25 218 3 gusting 5 4.4
2019-Nov-17 20:15 219 3 gusting 4 4.4
2019-Nov-17 20:05 219 3 gusting 4 4.4
2019-Nov-17 19:55 214 2 gusting 4 4.4
2019-Nov-17 19:45 216 2 gusting 5 4.4
2019-Nov-17 19:35 219 3 gusting 6 4.4
2019-Nov-17 19:25 217 3 gusting 6 4.4
2019-Nov-17 19:15 218 3 gusting 5 4.4
2019-Nov-17 19:05 219 3 gusting 5 4.4
2019-Nov-17 18:55 218 3 gusting 5 4.4
2019-Nov-17 18:45 218 3 gusting 5 4.4
2019-Nov-17 18:35 215 3 gusting 5 4.4
2019-Nov-17 18:25 216 3 gusting 5 4.4
2019-Nov-17 18:15 219 2 gusting 4 4.4
2019-Nov-17 18:05 219 3 gusting 5 4.4
2019-Nov-17 17:55 218 3 gusting 5 4.4
2019-Nov-17 17:45 217 4 gusting 6 5.0
2019-Nov-17 17:35 218 4 gusting 6 4.4
2019-Nov-17 17:25 216 3 gusting 5 5.0
2019-Nov-17 17:15 208 3 gusting 5 5.0
2019-Nov-17 17:05 213 3 gusting 5 4.4
2019-Nov-17 16:55 217 3 gusting 5 4.4
2019-Nov-17 16:45 213 3 gusting 6 4.4
2019-Nov-17 16:35 216 3 gusting 5 4.4
2019-Nov-17 16:25 206 3 gusting 5 4.4
2019-Nov-17 16:15 212 3 gusting 5 4.4
2019-Nov-17 16:05 203 2 gusting 4 3.9
2019-Nov-17 15:55 200 2 gusting 5 3.9
2019-Nov-17 15:45 203 1 gusting 4 3.9
2019-Nov-17 15:35 205 0 gusting 2 3.9
2019-Nov-17 15:25 197 1 gusting 2 3.9
2019-Nov-17 15:15 202 1 gusting 2 3.9
2019-Nov-17 15:05 197 1 gusting 2 3.9
2019-Nov-17 14:55 194 1 gusting 3 3.9
2019-Nov-17 14:45 187 1 gusting 4 3.9
2019-Nov-17 14:35 195 1 gusting 2 3.9
2019-Nov-17 14:25 184 3 gusting 6 3.9
2019-Nov-17 14:15 188 2 gusting 6 3.3
2019-Nov-17 14:05 196 1 gusting 3 3.3
2019-Nov-17 13:55 195 1 gusting 2 3.3
2019-Nov-17 13:45 200 1 gusting 3 2.8
2019-Nov-17 13:35 200 1 gusting 4 2.8
2019-Nov-17 13:25 187 2 gusting 6 2.8
2019-Nov-17 13:15 191 2 gusting 6 2.8
2019-Nov-17 13:05 192 3 gusting 6 2.8
2019-Nov-17 12:55 188 2 gusting 5 2.8
2019-Nov-17 12:45 180 2 gusting 4 2.8
2019-Nov-17 12:35 183 2 gusting 6 2.8
2019-Nov-17 12:25 182 2 gusting 6 2.8
2019-Nov-17 12:15 183 2 gusting 5 2.2
2019-Nov-17 12:05 182 3 gusting 6 2.2
2019-Nov-17 11:55 186 2 gusting 6 2.2
2019-Nov-17 11:45 185 3 gusting 6 2.2
2019-Nov-17 11:35 183 2 gusting 6 2.2
2019-Nov-17 11:25 177 0 gusting 5 2.2
2019-Nov-17 11:15 171 1 gusting 4 2.2
2019-Nov-17 11:05 178 0 gusting 6 1.7
2019-Nov-17 10:55 178 1 gusting 5 1.7
2019-Nov-17 10:45 168 2 gusting 6 1.7
2019-Nov-17 10:35 180 2 gusting 6 1.7
2019-Nov-17 10:25 185 2 gusting 6 1.7
2019-Nov-17 10:15 183 3 gusting 6 1.7
2019-Nov-17 10:05 179 2 gusting 5 1.1
2019-Nov-17 09:55 160 1 gusting 5 1.1
2019-Nov-17 09:45 160 1 gusting 5 1.1
2019-Nov-17 09:35 181 2 gusting 8 1.1
2019-Nov-17 09:25 175 1 gusting 5 1.1
2019-Nov-17 09:15 172 2 gusting 9 1.1
2019-Nov-17 09:05 166 1 gusting 6 1.1
2019-Nov-17 08:55 168 0 gusting 6 1.1
2019-Nov-17 08:45 119 0 gusting 6 1.1
2019-Nov-17 08:35 140 0 gusting 3 1.1
2019-Nov-17 08:25 144 0 gusting 3 1.1
2019-Nov-17 08:15 179 0 gusting 4 1.1
2019-Nov-17 08:05 163 0 gusting 5 0.6
2019-Nov-17 07:55 176 1 gusting 4 0.6
2019-Nov-17 07:45 125 0 gusting 9 0.6
2019-Nov-17 07:35 152 1 gusting 5 0.6
2019-Nov-17 07:25 160 0 gusting 4 0.6
2019-Nov-17 07:15 175 2 gusting 6 0.6
2019-Nov-17 07:05 165 1 gusting 5 0.6
2019-Nov-17 06:55 135 0 gusting 4 0.6
2019-Nov-17 06:45 128 0 gusting 3 0.6
2019-Nov-17 06:35 150 0 gusting 5 0.6
2019-Nov-17 06:25 163 1 gusting 5 0.6
2019-Nov-17 06:15 138 0 gusting 8 0.6
2019-Nov-17 06:05 138 0 gusting 4 0.6
2019-Nov-17 05:55 148 0 gusting 5 0.6
2019-Nov-17 05:45 117 0 gusting 3 0.6
2019-Nov-17 05:35 099 2 gusting 5 0.6
2019-Nov-17 05:25 112 1 gusting 4 0.6
2019-Nov-17 05:15 105 0 gusting 6 0.6
2019-Nov-17 05:05 127 0 gusting 5 0.6
2019-Nov-17 04:55 095 3 gusting 8 0.6
2019-Nov-17 04:45 100 2 gusting 6 0.6
2019-Nov-17 04:35 085 3 gusting 10 0.6
2019-Nov-17 04:25 128 1 gusting 5 0.6
2019-Nov-17 04:15 117 1 gusting 6 0.6
2019-Nov-17 04:05 145 0 gusting 2 -0.0
2019-Nov-17 03:55 121 0 gusting 4 -0.0
2019-Nov-17 03:45 104 1 gusting 4 -0.0
2019-Nov-17 03:35 112 0 gusting 4 -0.0
2019-Nov-17 03:25 117 1 gusting 5 -0.0
2019-Nov-17 03:15 084 6 gusting 13 -0.0
2019-Nov-17 03:05 089 1 gusting 6 -0.0
2019-Nov-17 02:55 107 0 gusting 4 -0.0
2019-Nov-17 02:45 084 3 gusting 7 -0.0
2019-Nov-17 02:35 093 2 gusting 7 -0.0
2019-Nov-17 02:25 070 2 gusting 6 -0.0
2019-Nov-17 02:15 080 1 gusting 6 -0.0
2019-Nov-17 02:05 077 3 gusting 7 -0.6
2019-Nov-17 01:55 087 3 gusting 7 -0.6
2019-Nov-17 01:47 067 4 gusting 9 -0.6
2019-Nov-17 01:35 061 6 gusting 13 -0.6
2019-Nov-17 01:25 060 5 gusting 9 -0.6
2019-Nov-17 01:15 059 3 gusting 6 -0.6
2019-Nov-17 01:05 061 1 gusting 4 -0.6
2019-Nov-17 00:55 057 0 gusting 2 -1.1
2019-Nov-17 00:45 062 0 gusting 2 -1.1
2019-Nov-17 00:35 062 0 gusting 2 -1.1
2019-Nov-17 00:25 177 -1.1
2019-Nov-17 00:15 137 -1.1
2019-Nov-17 00:05 079 0 gusting 2 -1.1
2019-Nov-16 23:55 084 0 gusting 5 -1.1
2019-Nov-16 23:45 099 1 gusting 5 -1.1
2019-Nov-16 23:35 081 3 gusting 8 -1.1
2019-Nov-16 23:25 066 2 gusting 7 -1.7
2019-Nov-16 23:15 066 3 gusting 8 -1.7
2019-Nov-16 23:05 062 4 gusting 6 -1.7
2019-Nov-16 22:55 062 4 gusting 7 -1.7
2019-Nov-16 22:45 060 4 gusting 8 -1.7
2019-Nov-16 22:35 058 3 gusting 9 -1.7
2019-Nov-16 22:25 064 3 gusting 6 -1.7
2019-Nov-16 22:15 058 3 gusting 8 -1.7
2019-Nov-16 22:05 062 3 gusting 6 -1.7
2019-Nov-16 21:55 062 3 gusting 6 -1.7
2019-Nov-16 21:45 060 1 gusting 5 -1.7
2019-Nov-16 21:35 056 2 gusting 6 -2.2
2019-Nov-16 21:25 066 2 gusting 5 -2.2
2019-Nov-16 21:15 063 3 gusting 6 -2.2
2019-Nov-16 21:05 055 2 gusting 5 -2.2
2019-Nov-16 20:55 058 1 gusting 6 -2.2
2019-Nov-16 20:45 056 1 gusting 4 -2.2
2019-Nov-16 20:35 059 2 gusting 6 -2.2
2019-Nov-16 20:25 057 2 gusting 6 -2.2
2019-Nov-16 20:15 053 0 gusting 4 -2.2
2019-Nov-16 20:05 059 1 gusting 3 -2.2
2019-Nov-16 19:55 064 2 gusting 6 -2.2
2019-Nov-16 19:45 065 2 gusting 5 -2.2
2019-Nov-16 19:35 061 3 gusting 7 -2.2
2019-Nov-16 19:25 063 1 gusting 4 -2.2
2019-Nov-16 19:15 059 1 gusting 3 -2.2
2019-Nov-16 19:05 067 1 gusting 4 -2.2
2019-Nov-16 18:55 058 1 gusting 5 -2.2
2019-Nov-16 18:45 059 2 gusting 5 -2.2
2019-Nov-16 18:35 058 3 gusting 6 -2.2
2019-Nov-16 18:25 066 3 gusting 5 -2.2
2019-Nov-16 18:15 060 3 gusting 6 -2.2
2019-Nov-16 18:05 065 3 gusting 7 -2.2
2019-Nov-16 17:55 064 3 gusting 6 -2.2
2019-Nov-16 17:45 063 3 gusting 8 -2.2
2019-Nov-16 17:35 066 4 gusting 8 -2.2
2019-Nov-16 17:25 062 4 gusting 9 -2.2
2019-Nov-16 17:15 057 3 gusting 7 -2.2
2019-Nov-16 17:05 060 2 gusting 6 -2.2
2019-Nov-16 16:55 061 2 gusting 5 -2.2
2019-Nov-16 16:45 059 0 gusting 2 -2.2
2019-Nov-16 16:35 073 1 gusting 3 -2.2
2019-Nov-16 16:25 056 3 gusting 6 -2.2
2019-Nov-16 16:15 066 1 gusting 5 -2.2
2019-Nov-16 16:05 061 2 gusting 5 -2.2
2019-Nov-16 15:55 064 0 gusting 2 -2.2
2019-Nov-16 15:45 069 2 gusting 6 -2.2
2019-Nov-16 15:35 058 2 gusting 4 -2.2
2019-Nov-16 15:25 066 1 gusting 4 -2.2
2019-Nov-16 15:15 060 3 gusting 7 -2.2
2019-Nov-16 15:05 055 2 gusting 6 -2.2
2019-Nov-16 14:55 066 4 gusting 7 -2.2
2019-Nov-16 14:45 057 3 gusting 6 -2.2
2019-Nov-16 14:35 063 1 gusting 4 -2.2
2019-Nov-16 14:25 059 2 gusting 6 -2.2
2019-Nov-16 14:15 066 2 gusting 7 -2.2
2019-Nov-16 14:05 057 2 gusting 5 -2.2
2019-Nov-16 13:55 054 2 gusting 5 -2.2
2019-Nov-16 13:45 054 1 gusting 5 -2.2
2019-Nov-16 13:35 057 1 gusting 5 -2.2
2019-Nov-16 13:25 054 2 gusting 6 -2.2
2019-Nov-16 13:15 060 1 gusting 6 -2.2
2019-Nov-16 13:05 057 0 gusting 2 -2.2
2019-Nov-16 12:55 069 1 gusting 3 -2.2
2019-Nov-16 12:45 066 1 gusting 3 -2.2
2019-Nov-16 12:35 066 0 gusting 2 -2.2
2019-Nov-16 12:25 097 0 gusting 2 -2.2
2019-Nov-16 12:15 060 2 gusting 5 -2.2
2019-Nov-16 12:05 069 2 gusting 5 -1.7
2019-Nov-16 11:55 081 1 gusting 3 -1.7
2019-Nov-16 11:45 079 1 gusting 5 -1.7
2019-Nov-16 11:35 053 1 gusting 5 -1.7
2019-Nov-16 11:25 070 1 gusting 5 -1.7
2019-Nov-16 11:15 056 2 gusting 6 -1.7
2019-Nov-16 11:05 060 2 gusting 4 -1.7
2019-Nov-16 10:55 064 1 gusting 3 -1.7
2019-Nov-16 10:45 048 2 gusting 5 -1.7
2019-Nov-16 10:35 057 0 gusting 2 -1.7
2019-Nov-16 10:25 067 1 gusting 4 -1.7
2019-Nov-16 10:15 050 1 gusting 3 -1.7
2019-Nov-16 10:05 062 1 gusting 4 -1.7
2019-Nov-16 09:55 055 1 gusting 4 -1.7
2019-Nov-16 09:45 069 1 gusting 4 -1.7
2019-Nov-16 09:35 063 1 gusting 4 -1.7
2019-Nov-16 09:25 065 3 gusting 7 -1.7
2019-Nov-16 09:15 071 2 gusting 7 -1.7
2019-Nov-16 09:05 083 2 gusting 6 -1.7
2019-Nov-16 08:55 064 1 gusting 3 -1.7
2019-Nov-16 08:45 066 0 gusting 1 -1.7
2019-Nov-16 08:35 074 1 gusting 5 -1.7
2019-Nov-16 08:25 077 1 gusting 2 -1.7
2019-Nov-16 08:15 072 2 gusting 5 -1.7
2019-Nov-16 08:05 054 3 gusting 6 -1.7
2019-Nov-16 07:55 064 2 gusting 6 -1.7
2019-Nov-16 07:45 055 2 gusting 4 -1.7
2019-Nov-16 07:35 054 3 gusting 6 -1.7
2019-Nov-16 07:25 059 2 gusting 6 -1.7
2019-Nov-16 07:15 056 2 gusting 6 -1.7
2019-Nov-16 07:05 078 3 gusting 6 -1.7
2019-Nov-16 06:55 077 2 gusting 7 -1.7
2019-Nov-16 06:45 059 1 gusting 5 -1.7
2019-Nov-16 06:35 070 1 gusting 5 -1.7
2019-Nov-16 06:25 074 0 gusting 5 -1.7
2019-Nov-16 06:15 091 4 gusting 8 -1.7
2019-Nov-16 06:05 082 1 gusting 4 -1.7
2019-Nov-16 05:55 050 3 gusting 8 -1.7
2019-Nov-16 05:45 065 1 gusting 5 -1.7
2019-Nov-16 05:35 061 3 gusting 5 -2.2
2019-Nov-16 05:25 064 4 gusting 10 -1.7
2019-Nov-16 05:15 066 2 gusting 5 -1.7
2019-Nov-16 05:05 096 0 gusting 2 -1.7
2019-Nov-16 04:55 059 1 gusting 5 -1.7
2019-Nov-16 04:45 061 1 gusting 4 -1.7
2019-Nov-16 04:35 070 1 gusting 5 -1.7
2019-Nov-16 04:25 057 0 gusting 2 -1.7
2019-Nov-16 04:15 069 1 gusting 4 -1.7
2019-Nov-16 04:05 080 0 gusting 3 -1.7
2019-Nov-16 03:55 070 0 gusting 4 -1.7
2019-Nov-16 03:45 091 0 gusting 2 -1.7
2019-Nov-16 03:35 073 2 gusting 6 -1.7
2019-Nov-16 03:25 063 0 gusting 1 -1.7
2019-Nov-16 03:15 083 1 gusting 4 -1.7
2019-Nov-16 03:05 058 1 gusting 5 -1.7
2019-Nov-16 02:55 074 2 gusting 6 -1.7
2019-Nov-16 02:45 069 1 gusting 5 -1.7
2019-Nov-16 02:35 077 0 gusting 2 -1.7
2019-Nov-16 02:25 066 0 gusting 3 -1.7
2019-Nov-16 02:15 060 1 gusting 5 -1.7
2019-Nov-16 02:05 058 -1.7
2019-Nov-16 01:55 117 -1.7
2019-Nov-16 01:45 102 -1.7
2019-Nov-16 01:35 077 -1.1
2019-Nov-16 01:25 059 -1.1
2019-Nov-16 01:15 107 0 gusting 2 -1.1
2019-Nov-16 01:05 058 1 gusting 4 -1.1